Wind from 336 at 3 knots gusting 4

Air temperature 15.6° C
Dewpoint 10.5° C

Last reported at 2014-Apr-24 18:45 UTC.
Time now 2014-Apr-24 19:32 UTC

Location: N 43°58' E 011°06'.
View on Google Maps.

See reports from other nearby stations

Tides Stations Pressure Air Temp Water Temp Dewpoint Dewpoint depression Visibility Wind Speed Wind Dir Waves Ship positions

  
sailing weather and tide predictions

IK5NLA Vaiano IT weather

date/time (UTC)wind fromknots sea level pressurealtimeterstation pressurevisibilityair tempwater tempwave heightnotes
2014-Apr-24 18:45 336 3 gusting 4 15.6
2014-Apr-24 18:35 335 3 gusting 4 16.1
2014-Apr-24 18:25 351 2 gusting 4 16.1
2014-Apr-24 18:15 030 3 gusting 6 16.1
2014-Apr-24 18:05 021 2 gusting 5 16.1
2014-Apr-24 17:55 355 0 gusting 4 16.1
2014-Apr-24 17:45 022 1 gusting 3 16.1
2014-Apr-24 17:35 048 2 gusting 2 16.1
2014-Apr-24 17:25 073 2 gusting 3 16.1
2014-Apr-24 17:15 349 3 gusting 5 16.1
2014-Apr-24 17:05 059 1 gusting 2 16.7
2014-Apr-24 16:55 057 0 gusting 3 16.7
2014-Apr-24 16:45 030 3 gusting 3 17.2
2014-Apr-24 16:35 083 2 gusting 4 17.8
2014-Apr-24 16:25 047 18.3
2014-Apr-24 16:15 326 5 gusting 6 18.3
2014-Apr-24 16:05 250 3 gusting 5 18.3
2014-Apr-24 15:55 230 4 gusting 6 18.3
2014-Apr-24 15:45 267 6 gusting 8 18.3
2014-Apr-24 15:35 261 8 gusting 8 18.3
2014-Apr-24 15:25 260 5 gusting 9 18.3
2014-Apr-24 15:15 271 8 gusting 9 18.3
2014-Apr-24 15:05 240 7 gusting 9 18.3
2014-Apr-24 14:55 249 4 gusting 8 18.3
2014-Apr-24 14:45 260 3 gusting 11 18.3
2014-Apr-24 14:35 290 3 gusting 9 18.3
2014-Apr-24 14:25 317 8 gusting 11 18.3
2014-Apr-24 14:15 283 11 gusting 14 18.3
2014-Apr-24 14:05 265 8 gusting 9 18.3
2014-Apr-24 13:55 291 5 gusting 12 18.3
2014-Apr-24 13:45 248 6 gusting 12 18.3
2014-Apr-24 13:35 315 8 gusting 9 17.8
2014-Apr-24 13:26 271 7 gusting 8 17.8
2014-Apr-24 13:15 271 4 gusting 9 17.8
2014-Apr-24 13:05 279 5 gusting 11 18.3
2014-Apr-24 12:55 272 8 gusting 13 18.3
2014-Apr-24 12:45 272 6 gusting 10 17.8
2014-Apr-24 12:35 200 7 gusting 7 17.2
2014-Apr-24 12:25 125 0 gusting 4 16.7
2014-Apr-24 12:15 071 16.7
2014-Apr-24 12:05 295 16.7
2014-Apr-24 11:55 277 3 gusting 4 16.7
2014-Apr-24 11:45 324 1 gusting 5 16.7
2014-Apr-24 11:35 309 2 gusting 6 16.7
2014-Apr-24 11:25 304 5 gusting 8 17.2
2014-Apr-24 11:15 269 5 gusting 6 17.8
2014-Apr-24 11:05 221 3 gusting 9 17.8
2014-Apr-24 10:55 261 3 gusting 7 18.3
2014-Apr-24 10:45 094 18.3
2014-Apr-24 10:35 046 17.8
2014-Apr-24 10:25 019 17.8
2014-Apr-24 10:15 129 17.8
2014-Apr-24 10:05 119 2 gusting 3 17.8
2014-Apr-24 09:55 086 2 gusting 4 17.2
2014-Apr-24 09:45 086 1 gusting 5 16.7
2014-Apr-24 09:35 088 6 gusting 6 16.7
2014-Apr-24 09:25 067 3 gusting 6 17.2
2014-Apr-24 09:15 114 5 gusting 6 17.2
2014-Apr-24 09:05 128 4 gusting 6 17.2
2014-Apr-24 08:55 137 3 gusting 5 17.8
2014-Apr-24 08:45 097 1 gusting 3 18.3
2014-Apr-24 08:35 136 1 gusting 3 18.3
2014-Apr-24 08:25 119 0 gusting 4 17.8
2014-Apr-24 08:15 169 2 gusting 3 17.8
2014-Apr-24 08:05 191 4 gusting 4 17.8
2014-Apr-24 07:55 182 1 gusting 2 17.8
2014-Apr-24 07:45 147 1 gusting 3 17.8
2014-Apr-24 07:35 165 0 gusting 2 18.3
2014-Apr-24 07:25 165 17.8
2014-Apr-24 07:15 113 0 gusting 3 17.2
2014-Apr-24 07:05 110 0 gusting 2 17.2
2014-Apr-24 06:55 119 1 gusting 2 16.7
2014-Apr-24 06:45 126 1 gusting 2 16.7
2014-Apr-24 06:35 126 1 gusting 2 16.7
2014-Apr-24 06:25 146 0 gusting 2 16.7
2014-Apr-24 06:15 163 16.1
2014-Apr-24 06:05 163 15.6
2014-Apr-24 05:55 281 15.0
2014-Apr-24 05:45 284 15.0
2014-Apr-24 05:35 284 14.4
2014-Apr-24 05:25 284 13.9
2014-Apr-24 05:15 284 13.9
2014-Apr-24 05:05 283 13.3
2014-Apr-24 04:55 284 13.3
2014-Apr-24 04:45 020 0 gusting 2 13.3
2014-Apr-24 04:35 031 13.3
2014-Apr-24 04:25 318 2 gusting 3 13.3
2014-Apr-24 04:15 309 13.3
2014-Apr-24 04:05 309 1 gusting 2 13.3
2014-Apr-24 03:55 309 1 gusting 2 13.3
2014-Apr-24 03:45 319 13.3
2014-Apr-24 03:35 319 13.3
2014-Apr-24 03:25 319 13.3
2014-Apr-24 03:15 296 2 gusting 2 13.3
2014-Apr-24 03:05 283 0 gusting 1 13.3
2014-Apr-24 02:55 283 0 gusting 1 13.3
2014-Apr-24 02:45 279 2 gusting 2 13.3
2014-Apr-24 02:35 265 2 gusting 3 13.3
2014-Apr-24 02:25 306 2 gusting 2 13.9
2014-Apr-24 02:15 307 1 gusting 2 13.9
2014-Apr-24 02:05 308 13.9
2014-Apr-24 01:55 307 13.9
2014-Apr-24 01:45 273 1 gusting 2 13.9
2014-Apr-24 01:35 348 13.3
2014-Apr-24 01:25 348 13.3
2014-Apr-24 01:15 122 13.3
2014-Apr-24 01:05 105 13.3
2014-Apr-24 00:55 105 13.3
2014-Apr-24 00:45 189 13.3
2014-Apr-24 00:35 115 13.3
2014-Apr-24 00:25 115 13.9
2014-Apr-24 00:15 115 13.9
2014-Apr-24 00:05 115 0 gusting 4 13.9
2014-Apr-23 23:55 325 3 gusting 3 13.3
2014-Apr-23 23:45 207 1 gusting 4 13.3
2014-Apr-23 23:35 248 1 gusting 2 13.3
2014-Apr-23 23:25 248 13.3
2014-Apr-23 23:15 268 13.3
2014-Apr-23 23:05 250 1 gusting 2 13.3
2014-Apr-23 22:55 105 13.9
2014-Apr-23 22:45 105 13.9
2014-Apr-23 22:35 104 13.9
2014-Apr-23 22:25 214 13.9
2014-Apr-23 22:15 171 2 gusting 2 14.4
2014-Apr-23 22:05 091 14.4
2014-Apr-23 21:55 252 14.4
2014-Apr-23 21:45 273 14.4
2014-Apr-23 21:35 148 15.0
2014-Apr-23 21:25 148 15.0
2014-Apr-23 21:15 148 15.6
2014-Apr-23 21:05 099 15.6
2014-Apr-23 20:55 102 3 gusting 3 15.6
2014-Apr-23 20:45 044 4 gusting 7 15.6
2014-Apr-23 20:35 063 0 gusting 7 15.6
2014-Apr-23 20:25 072 1 gusting 6 15.6
2014-Apr-23 20:15 074 3 gusting 6 15.6
2014-Apr-23 20:05 027 4 gusting 6 15.6
2014-Apr-23 19:55 048 2 gusting 4 15.6
2014-Apr-23 19:45 087 2 gusting 2 15.6
2014-Apr-23 19:35 053 16.1
2014-Apr-23 19:25 106 0 gusting 5 16.1
2014-Apr-23 19:15 355 1 gusting 3 16.1
2014-Apr-23 19:05 088 1 gusting 5 16.1
2014-Apr-23 18:55 060 5 gusting 7 16.1
2014-Apr-23 18:45 048 0 gusting 6 16.1
2014-Apr-23 18:35 055 16.1
2014-Apr-23 18:25 130 1 gusting 7 16.1
2014-Apr-23 18:15 029 1 gusting 8 16.7
2014-Apr-23 18:05 044 2 gusting 5 16.7
2014-Apr-23 17:55 125 3 gusting 4 16.7
2014-Apr-23 17:45 079 3 gusting 8 16.7
2014-Apr-23 17:35 075 1 gusting 9 17.2
2014-Apr-23 17:25 065 17.2
2014-Apr-23 17:15 084 5 gusting 7 17.2
2014-Apr-23 17:05 086 4 gusting 9 17.2
2014-Apr-23 16:55 086 0 gusting 6 17.2
2014-Apr-23 16:45 081 4 gusting 6 17.2
2014-Apr-23 07:55 103 9 gusting 15 15.6
2014-Apr-23 07:45 078 7 gusting 13 15.6
2014-Apr-23 07:35 075 8 gusting 10 15.6
2014-Apr-23 07:26 094 6 gusting 10 15.0
2014-Apr-23 07:15 119 4 gusting 14 15.0
2014-Apr-23 07:05 091 2 gusting 6 14.4
2014-Apr-23 06:55 085 6 gusting 8 13.9
2014-Apr-23 06:45 088 6 gusting 8 13.9
2014-Apr-23 06:25 096 1 gusting 8 13.3
2014-Apr-23 06:15 080 3 gusting 8 13.3
2014-Apr-23 06:05 071 5 gusting 8 13.3
2014-Apr-23 05:55 052 3 gusting 8 13.3
2014-Apr-23 05:45 041 6 gusting 8 12.8
2014-Apr-23 05:35 070 4 gusting 8 12.8
2014-Apr-23 05:25 065 2 gusting 6 12.8
2014-Apr-23 05:15 092 3 gusting 7 12.8
2014-Apr-23 05:05 032 2 gusting 8 12.8
2014-Apr-23 04:55 067 5 gusting 8 12.8
2014-Apr-23 04:45 053 6 gusting 8 12.8
2014-Apr-23 04:35 121 4 gusting 6 12.8
2014-Apr-23 04:25 054 2 gusting 8 13.3
2014-Apr-23 04:15 046 3 gusting 8 13.3
2014-Apr-23 04:05 047 7 gusting 10 13.3
2014-Apr-23 03:55 069 5 gusting 6 13.3
2014-Apr-23 03:45 066 1 gusting 7 13.3
2014-Apr-23 03:35 059 6 gusting 8 13.3
2014-Apr-23 03:25 046 8 gusting 8 13.3
2014-Apr-23 03:15 072 3 gusting 8 13.3
2014-Apr-23 03:05 350 3 gusting 7 13.3
2014-Apr-23 02:55 010 4 gusting 9 13.3
2014-Apr-23 02:45 350 5 gusting 10 13.3
2014-Apr-23 02:35 046 6 gusting 6 13.3
2014-Apr-23 02:25 056 2 gusting 6 13.3
2014-Apr-23 02:15 094 5 gusting 6 12.8
2014-Apr-23 02:05 080 6 gusting 6 12.8
2014-Apr-23 01:55 084 3 gusting 6 12.8
2014-Apr-23 01:45 082 6 gusting 7 12.8
2014-Apr-23 01:35 062 4 gusting 6 12.8
2014-Apr-23 01:25 055 2 gusting 5 13.3
2014-Apr-23 01:15 067 2 gusting 5 13.3
2014-Apr-23 01:05 080 3 gusting 5 13.9
2014-Apr-23 00:55 034 4 gusting 5 14.4
2014-Apr-23 00:45 034 2 gusting 6 14.4
2014-Apr-23 00:35 329 5 gusting 6 14.4
2014-Apr-23 00:25 351 2 gusting 6 14.4
2014-Apr-23 00:15 040 3 gusting 6 15.0
2014-Apr-23 00:05 010 4 gusting 6 15.0
2014-Apr-22 23:55 360 6 gusting 6 15.0
2014-Apr-22 23:45 355 2 gusting 6 15.0
2014-Apr-22 23:35 360 6 gusting 7 14.4
2014-Apr-22 23:25 346 4 gusting 6 14.4
2014-Apr-22 23:15 034 2 gusting 5 14.4
2014-Apr-22 23:05 024 0 gusting 6 15.0
2014-Apr-22 22:55 346 6 gusting 8 14.4
2014-Apr-22 22:45 342 6 gusting 7 14.4
2014-Apr-22 22:35 360 6 gusting 7 14.4
2014-Apr-22 22:25 344 4 gusting 8 14.4
2014-Apr-22 22:15 306 5 gusting 6 14.4
2014-Apr-22 22:05 345 4 gusting 7 14.4
2014-Apr-22 21:55 345 5 gusting 5 13.9
2014-Apr-22 21:45 346 3 gusting 5 13.9
2014-Apr-22 21:35 344 2 gusting 4 13.9
2014-Apr-22 21:25 013 2 gusting 4 13.9
2014-Apr-22 21:15 360 4 gusting 4 13.9
2014-Apr-22 21:05 038 2 gusting 5 13.9
2014-Apr-22 20:55 025 4 gusting 4 13.9
2014-Apr-22 20:45 021 3 gusting 4 13.9
2014-Apr-22 20:35 355 4 gusting 5 13.9
2014-Apr-22 20:25 348 2 gusting 5 13.9
2014-Apr-22 20:15 351 3 gusting 5 13.9
2014-Apr-22 20:05 331 4 gusting 6 13.9
2014-Apr-22 19:55 346 3 gusting 6 13.9
2014-Apr-22 19:45 344 3 gusting 4 13.9
2014-Apr-22 19:35 341 2 gusting 4 13.9
2014-Apr-22 19:25 344 3 gusting 5 13.9
2014-Apr-22 19:15 344 4 gusting 5 13.9
2014-Apr-22 19:05 348 4 gusting 5 13.9